Time,TemperatureF,DewpointF,PressureIn,WindDirection,WindDirectionDegrees,WindSpeedMPH,WindSpeedGustMPH,Humidity,HourlyPrecipIn,Conditions,Clouds,dailyrainin,SoftwareType,DateUTC
2013-07-08 00:02:00,77.2,70.2,30.18,SE,135,0.0,0.0,79,0.00,,SKC,0.00,VWS V14.01,2013-07-08 05:02:00,
2013-07-08 00:07:00,77.0,70.0,30.18,SSE,158,0.0,0.0,79,0.00,,SKC,0.00,VWS V14.01,2013-07-08 05:07:00,
2013-07-08 00:12:00,76.8,70.2,30.18,SSE,158,0.0,0.0,80,0.00,,SKC,0.00,VWS V14.01,2013-07-08 05:12:00,
2013-07-08 00:17:00,76.8,69.8,30.18,South,180,0.0,0.0,79,0.00,,SKC,0.00,VWS V14.01,2013-07-08 05:17:00,
2013-07-08 00:22:00,76.8,69.8,30.18,SSE,158,0.0,0.0,79,0.00,,SKC,0.00,VWS V14.01,2013-07-08 05:22:00,
2013-07-08 00:27:00,76.6,69.6,30.18,SSE,158,0.0,0.0,79,0.00,,SKC,0.00,VWS V14.01,2013-07-08 05:27:00,
2013-07-08 00:32:00,76.6,69.6,30.15,SSE,158,0.0,0.0,79,0.00,,SKC,0.00,VWS V14.01,2013-07-08 05:32:00,
2013-07-08 00:37:00,76.5,69.5,30.15,ESE,112,0.0,0.0,79,0.00,,SKC,0.00,VWS V14.01,2013-07-08 05:37:00,
2013-07-08 00:42:00,76.5,69.5,30.15,East,90,0.0,0.0,79,0.00,,SKC,0.00,VWS V14.01,2013-07-08 05:42:00,
2013-07-08 00:47:00,76.3,69.3,30.15,SSE,158,0.0,0.0,79,0.00,,SKC,0.00,VWS V14.01,2013-07-08 05:47:00,
2013-07-08 00:52:00,76.3,69.3,30.15,SSE,158,0.0,0.0,79,0.00,,SKC,0.00,VWS V14.01,2013-07-08 05:52:00,
2013-07-08 00:57:00,76.1,69.1,30.15,SSE,158,0.0,0.0,79,0.00,,SKC,0.00,VWS V14.01,2013-07-08 05:57:00,
2013-07-08 01:02:00,76.1,69.1,30.18,SSE,158,0.0,0.0,79,0.00,,SKC,0.00,VWS V14.01,2013-07-08 06:02:00,
2013-07-08 01:07:00,76.1,69.1,30.18,SSE,158,0.0,0.0,79,0.00,,SKC,0.00,VWS V14.01,2013-07-08 06:07:00,
2013-07-08 01:12:00,75.9,68.9,30.18,ESE,112,0.0,0.0,79,0.00,,SKC,0.00,VWS V14.01,2013-07-08 06:12:00,
2013-07-08 01:17:00,75.7,68.8,30.18,SSE,158,0.0,0.0,79,0.00,,SKC,0.00,VWS V14.01,2013-07-08 06:17:00,
2013-07-08 01:22:00,75.7,68.8,30.18,SSE,158,0.0,0.0,79,0.00,,SKC,0.00,VWS V14.01,2013-07-08 06:22:00,
2013-07-08 01:27:00,75.7,68.8,30.18,South,180,0.0,0.0,79,0.00,,SKC,0.00,VWS V14.01,2013-07-08 06:27:00,
2013-07-08 01:32:00,75.6,69.0,30.18,SSE,158,0.0,0.0,80,0.00,,SKC,0.00,VWS V14.01,2013-07-08 06:32:00,
2013-07-08 01:37:00,75.6,69.0,30.18,SSE,158,0.0,0.0,80,0.00,,SKC,0.00,VWS V14.01,2013-07-08 06:37:00,
2013-07-08 01:42:00,75.4,68.8,30.18,South,180,0.0,0.0,80,0.00,,SKC,0.00,VWS V14.01,2013-07-08 06:42:00,
2013-07-08 01:47:00,75.2,68.6,30.18,South,180,0.0,0.0,80,0.00,,SKC,0.00,VWS V14.01,2013-07-08 06:47:00,
2013-07-08 01:52:00,75.0,68.8,30.18,SSE,158,0.0,0.0,81,0.00,,SKC,0.00,VWS V14.01,2013-07-08 06:52:00,
2013-07-08 01:57:00,75.0,68.8,30.18,SE,135,0.0,0.0,81,0.00,,SKC,0.00,VWS V14.01,2013-07-08 06:57:00,
2013-07-08 02:02:00,74.8,68.6,30.15,SE,135,0.0,0.0,81,0.00,,SKC,0.00,VWS V14.01,2013-07-08 07:02:00,
2013-07-08 02:07:00,74.8,69.0,30.15,SE,135,0.0,0.0,82,0.00,,SKC,0.00,VWS V14.01,2013-07-08 07:07:00,
2013-07-08 02:12:00,74.7,68.8,30.15,SE,135,0.0,0.0,82,0.00,,SKC,0.00,VWS V14.01,2013-07-08 07:12:00,
2013-07-08 02:17:00,74.7,68.8,30.15,South,180,0.0,0.0,82,0.00,,SKC,0.00,VWS V14.01,2013-07-08 07:17:00,
2013-07-08 02:22:00,74.3,68.8,30.15,South,180,0.0,0.0,83,0.00,,SKC,0.00,VWS V14.01,2013-07-08 07:22:00,
2013-07-08 02:27:00,74.5,69.0,30.15,South,180,0.0,0.0,83,0.00,,SKC,0.00,VWS V14.01,2013-07-08 07:27:00,
2013-07-08 02:32:00,74.5,69.0,30.15,SE,135,0.0,0.0,83,0.00,,SKC,0.00,VWS V14.01,2013-07-08 07:32:00,
2013-07-08 02:37:00,74.5,69.0,30.15,SSE,158,0.0,0.0,83,0.00,,SKC,0.00,VWS V14.01,2013-07-08 07:37:00,
2013-07-08 02:42:00,74.5,69.3,30.15,SSE,158,0.0,0.0,84,0.00,,SKC,0.00,VWS V14.01,2013-07-08 07:42:00,
2013-07-08 02:47:00,74.5,69.3,30.15,SSE,158,0.0,0.0,84,0.00,,SKC,0.00,VWS V14.01,2013-07-08 07:47:00,
2013-07-08 02:52:00,74.3,69.2,30.15,SSE,158,0.0,0.0,84,0.00,,SKC,0.00,VWS V14.01,2013-07-08 07:52:00,
2013-07-08 02:57:00,74.1,69.0,30.15,ESE,112,0.0,0.0,84,0.00,,SKC,0.00,VWS V14.01,2013-07-08 07:57:00,
2013-07-08 03:02:00,74.1,69.3,30.15,SE,135,0.0,0.0,85,0.00,,SKC,0.00,VWS V14.01,2013-07-08 08:02:00,
2013-07-08 03:07:00,74.1,69.3,30.15,SSE,158,0.0,0.0,85,0.00,,SKC,0.00,VWS V14.01,2013-07-08 08:07:00,
2013-07-08 03:12:00,74.1,69.3,30.15,South,180,0.0,0.0,85,0.00,,SKC,0.00,VWS V14.01,2013-07-08 08:12:00,
2013-07-08 03:17:00,73.9,69.5,30.15,SSE,158,0.0,0.0,86,0.00,,SKC,0.00,VWS V14.01,2013-07-08 08:17:00,
2013-07-08 03:22:00,73.9,69.5,30.15,SSE,158,0.0,0.0,86,0.00,,SKC,0.00,VWS V14.01,2013-07-08 08:22:00,
2013-07-08 03:27:00,73.8,69.3,30.15,SSE,158,0.0,0.0,86,0.00,,SKC,0.00,VWS V14.01,2013-07-08 08:27:00,
2013-07-08 03:32:00,73.6,69.1,30.15,SE,135,0.0,0.0,86,0.00,,SKC,0.00,VWS V14.01,2013-07-08 08:32:00,
2013-07-08 03:37:00,73.4,69.0,30.15,South,180,0.0,0.0,86,0.00,,SKC,0.00,VWS V14.01,2013-07-08 08:37:00,
2013-07-08 03:42:00,73.4,69.3,30.15,SE,135,0.0,0.0,87,0.00,,SKC,0.00,VWS V14.01,2013-07-08 08:42:00,
2013-07-08 03:47:00,73.4,69.3,30.15,South,180,0.0,0.0,87,0.00,,SKC,0.00,VWS V14.01,2013-07-08 08:47:00,
2013-07-08 03:52:00,73.2,69.1,30.15,South,180,0.0,0.0,87,0.00,,SKC,0.00,VWS V14.01,2013-07-08 08:52:00,
2013-07-08 03:57:00,73.2,69.5,30.15,South,180,0.0,0.0,88,0.00,,SKC,0.00,VWS V14.01,2013-07-08 08:57:00,
2013-07-08 04:02:00,73.2,69.5,30.15,SSE,158,0.0,0.0,88,0.00,,SKC,0.00,VWS V14.01,2013-07-08 09:02:00,
2013-07-08 04:07:00,73.0,69.3,30.15,SSE,158,0.0,0.0,88,0.00,,SKC,0.00,VWS V14.01,2013-07-08 09:07:00,
2013-07-08 04:12:00,72.9,69.1,30.15,SE,135,0.0,0.0,88,0.00,,SKC,0.00,VWS V14.01,2013-07-08 09:12:00,
2013-07-08 04:17:00,73.0,69.3,30.15,SSE,158,0.0,0.0,88,0.00,,SKC,0.00,VWS V14.01,2013-07-08 09:17:00,
2013-07-08 04:22:00,73.0,69.3,30.15,SE,135,0.0,0.0,88,0.00,,SKC,0.00,VWS V14.01,2013-07-08 09:22:00,
2013-07-08 04:27:00,73.0,69.3,30.15,ESE,112,0.0,0.0,88,0.00,,SKC,0.00,VWS V14.01,2013-07-08 09:27:00,
2013-07-08 04:32:00,73.2,69.5,30.15,SSE,158,0.0,0.0,88,0.00,,SKC,0.00,VWS V14.01,2013-07-08 09:32:00,
2013-07-08 04:37:00,73.2,69.5,30.15,ESE,112,0.0,0.0,88,0.00,,SKC,0.00,VWS V14.01,2013-07-08 09:37:00,
2013-07-08 04:42:00,73.4,69.6,30.15,South,180,0.0,0.0,88,0.00,,SKC,0.00,VWS V14.01,2013-07-08 09:42:00,
2013-07-08 04:47:00,73.6,69.5,30.15,SSE,158,0.0,0.0,87,0.00,,SKC,0.00,VWS V14.01,2013-07-08 09:47:00,
2013-07-08 04:52:00,73.4,69.3,30.15,WSW,248,0.0,0.0,87,0.00,,SKC,0.00,VWS V14.01,2013-07-08 09:52:00,
2013-07-08 04:57:00,73.6,69.5,30.15,SSE,158,0.0,0.0,87,0.00,,SKC,0.00,VWS V14.01,2013-07-08 09:57:00,
2013-07-08 05:02:00,73.6,69.5,30.15,ESE,112,0.0,0.0,87,0.00,,SKC,0.00,VWS V14.01,2013-07-08 10:02:00,
2013-07-08 05:07:00,73.6,69.5,30.15,SSE,158,0.0,0.0,87,0.00,,SKC,0.00,VWS V14.01,2013-07-08 10:07:00,
2013-07-08 05:12:00,73.4,69.3,30.15,SSE,158,0.0,0.0,87,0.00,,SKC,0.00,VWS V14.01,2013-07-08 10:12:00,
2013-07-08 05:17:00,73.4,69.3,30.15,SSE,158,0.0,0.0,87,0.00,,SKC,0.00,VWS V14.01,2013-07-08 10:17:00,
2013-07-08 05:22:00,73.2,69.1,30.15,SE,135,0.0,0.0,87,0.00,,SKC,0.00,VWS V14.01,2013-07-08 10:22:00,
2013-07-08 05:27:00,73.2,69.5,30.15,SE,135,0.0,0.0,88,0.00,,SKC,0.00,VWS V14.01,2013-07-08 10:27:00,
2013-07-08 05:32:00,73.0,69.3,30.15,SSE,158,0.0,0.0,88,0.00,,SKC,0.00,VWS V14.01,2013-07-08 10:32:00,
2013-07-08 05:37:00,73.0,69.3,30.15,SSE,158,0.0,0.0,88,0.00,,SKC,0.00,VWS V14.01,2013-07-08 10:37:00,
2013-07-08 05:42:00,72.9,69.1,30.15,SSE,158,0.0,0.0,88,0.00,,SKC,0.00,VWS V14.01,2013-07-08 10:42:00,
2013-07-08 05:47:00,72.9,69.1,30.15,ESE,112,0.0,0.0,88,0.00,,SKC,0.00,VWS V14.01,2013-07-08 10:47:00,
2013-07-08 05:52:00,72.9,69.1,30.18,SE,135,0.0,0.0,88,0.00,,SKC,0.00,VWS V14.01,2013-07-08 10:52:00,
2013-07-08 05:57:00,72.9,69.1,30.18,ESE,112,0.0,0.0,88,0.00,,SKC,0.00,VWS V14.01,2013-07-08 10:57:00,
2013-07-08 06:02:00,73.0,69.3,30.18,SE,135,0.0,0.0,88,0.00,,SKC,0.00,VWS V14.01,2013-07-08 11:02:00,
2013-07-08 06:07:00,73.0,69.3,30.18,SSE,158,0.0,0.0,88,0.00,,SKC,0.00,VWS V14.01,2013-07-08 11:07:00,
2013-07-08 06:12:00,73.2,69.5,30.18,SSE,158,0.0,0.0,88,0.00,,SKC,0.00,VWS V14.01,2013-07-08 11:12:00,
2013-07-08 06:17:00,73.2,69.8,30.18,SSE,158,0.0,0.0,89,0.00,,SKC,0.00,VWS V14.01,2013-07-08 11:17:00,
2013-07-08 06:22:00,73.4,69.6,30.18,SE,135,0.0,0.0,88,0.00,,SKC,0.00,VWS V14.01,2013-07-08 11:22:00,
2013-07-08 06:27:00,73.4,70.0,30.18,SSE,158,0.0,0.0,89,0.00,,SKC,0.00,VWS V14.01,2013-07-08 11:27:00,
2013-07-08 06:32:00,73.4,70.0,30.18,SSE,158,0.0,0.0,89,0.00,,SKC,0.00,VWS V14.01,2013-07-08 11:32:00,
2013-07-08 06:37:00,73.6,70.1,30.15,SSE,158,0.0,0.0,89,0.00,,SKC,0.00,VWS V14.01,2013-07-08 11:37:00,
2013-07-08 06:42:00,73.6,69.8,30.15,SE,135,0.0,0.0,88,0.00,,SKC,0.00,VWS V14.01,2013-07-08 11:42:00,
2013-07-08 06:47:00,73.8,70.0,30.18,SSE,158,0.0,0.0,88,0.00,,SKC,0.00,VWS V14.01,2013-07-08 11:47:00,
2013-07-08 06:52:00,73.8,70.0,30.18,SE,135,0.0,0.0,88,0.00,,SKC,0.00,VWS V14.01,2013-07-08 11:52:00,
2013-07-08 06:57:00,73.9,70.2,30.18,SSE,158,0.0,0.0,88,0.00,,SKC,0.00,VWS V14.01,2013-07-08 11:57:00,
2013-07-08 07:02:00,74.1,70.3,30.18,ESE,112,0.0,0.0,88,0.00,,SKC,0.00,VWS V14.01,2013-07-08 12:02:00,
2013-07-08 07:07:00,74.3,70.5,30.18,SE,135,0.0,0.0,88,0.00,,SKC,0.00,VWS V14.01,2013-07-08 12:07:00,
2013-07-08 07:12:00,74.5,70.7,30.18,SSE,158,0.0,0.0,88,0.00,,SKC,0.00,VWS V14.01,2013-07-08 12:12:00,
2013-07-08 07:17:00,74.8,71.1,30.18,SSE,158,0.0,0.0,88,0.00,,SKC,0.00,VWS V14.01,2013-07-08 12:17:00,
2013-07-08 07:22:00,75.0,71.2,30.18,SSE,158,0.0,0.0,88,0.00,,SKC,0.00,VWS V14.01,2013-07-08 12:22:00,
2013-07-08 07:27:00,75.2,71.1,30.18,SSE,158,0.0,0.0,87,0.00,,SKC,0.00,VWS V14.01,2013-07-08 12:27:00,
2013-07-08 07:32:00,75.4,71.2,30.18,SW,225,0.0,0.0,87,0.00,,SKC,0.00,VWS V14.01,2013-07-08 12:32:00,
2013-07-08 07:37:00,75.7,71.6,30.18,SE,135,0.0,0.0,87,0.00,,SKC,0.00,VWS V14.01,2013-07-08 12:37:00,
2013-07-08 07:42:00,76.1,71.9,30.18,SE,135,2.0,8.1,87,0.00,,SKC,0.00,VWS V14.01,2013-07-08 12:42:00,
2013-07-08 07:47:00,76.3,71.8,30.18,South,180,0.0,0.0,86,0.00,,SKC,0.00,VWS V14.01,2013-07-08 12:47:00,
2013-07-08 07:52:00,76.8,72.3,30.18,East,90,0.0,0.0,86,0.00,,SKC,0.00,VWS V14.01,2013-07-08 12:52:00,
2013-07-08 07:57:00,77.4,72.5,30.18,SE,135,0.0,0.0,85,0.00,,SKC,0.00,VWS V14.01,2013-07-08 12:57:00,
2013-07-08 08:02:00,77.7,72.5,30.15,SE,135,0.0,0.0,84,0.00,,SKC,0.00,VWS V14.01,2013-07-08 13:02:00,
2013-07-08 08:07:00,78.3,73.0,30.15,SE,135,0.0,0.0,84,0.00,,SKC,0.00,VWS V14.01,2013-07-08 13:07:00,
2013-07-08 08:12:00,78.4,73.2,30.15,SSE,158,0.0,0.0,84,0.00,,SKC,0.00,VWS V14.01,2013-07-08 13:12:00,
2013-07-08 08:17:00,78.8,72.8,30.18,East,90,2.9,11.6,82,0.00,,SKC,0.00,VWS V14.01,2013-07-08 13:17:00,
2013-07-08 08:22:00,79.2,73.2,30.18,ESE,112,0.0,0.0,82,0.00,,SKC,0.00,VWS V14.01,2013-07-08 13:22:00,
2013-07-08 08:27:00,79.3,72.6,30.18,SE,135,0.0,0.0,80,0.00,,SKC,0.00,VWS V14.01,2013-07-08 13:27:00,
2013-07-08 08:32:00,79.2,72.1,30.18,ENE,68,0.0,0.0,79,0.00,,SKC,0.00,VWS V14.01,2013-07-08 13:32:00,
2013-07-08 08:37:00,79.7,73.0,30.18,WSW,248,0.0,0.0,80,0.00,,SKC,0.00,VWS V14.01,2013-07-08 13:37:00,
2013-07-08 08:42:00,80.2,73.1,30.18,ESE,112,0.0,0.0,79,0.00,,SKC,0.00,VWS V14.01,2013-07-08 13:42:00,
2013-07-08 08:47:00,81.1,74.0,30.18,SSW,202,0.0,0.0,79,0.00,,SKC,0.00,VWS V14.01,2013-07-08 13:47:00,
2013-07-08 08:52:00,81.7,73.8,30.18,ESE,112,0.0,0.0,77,0.00,,SKC,0.00,VWS V14.01,2013-07-08 13:52:00,
2013-07-08 08:57:00,81.9,74.3,30.18,SE,135,0.0,0.0,78,0.00,,SKC,0.00,VWS V14.01,2013-07-08 13:57:00,
2013-07-08 09:02:00,81.7,74.2,30.18,ESE,112,0.0,0.0,78,0.00,,SKC,0.00,VWS V14.01,2013-07-08 14:02:00,
2013-07-08 09:07:00,81.7,74.2,30.18,West,270,0.0,0.0,78,0.00,,SKC,0.00,VWS V14.01,2013-07-08 14:07:00,
2013-07-08 09:12:00,81.9,73.9,30.18,SSE,158,0.0,0.0,77,0.00,,SKC,0.00,VWS V14.01,2013-07-08 14:12:00,
2013-07-08 09:17:00,82.2,74.7,30.18,SE,135,0.0,0.0,78,0.00,,SKC,0.00,VWS V14.01,2013-07-08 14:17:00,
2013-07-08 09:22:00,82.4,74.5,30.18,SE,135,0.0,0.0,77,0.00,,SKC,0.00,VWS V14.01,2013-07-08 14:22:00,
2013-07-08 09:27:00,82.6,74.6,30.18,SSE,158,0.0,0.0,77,0.00,,SKC,0.00,VWS V14.01,2013-07-08 14:27:00,
2013-07-08 09:32:00,82.8,74.8,30.21,South,180,0.0,0.0,77,0.00,,SKC,0.00,VWS V14.01,2013-07-08 14:32:00,
2013-07-08 09:37:00,82.9,75.0,30.21,SE,135,0.0,0.0,77,0.00,,SKC,0.00,VWS V14.01,2013-07-08 14:37:00,
2013-07-08 09:42:00,82.9,75.0,30.21,South,180,0.0,0.0,77,0.00,,SKC,0.00,VWS V14.01,2013-07-08 14:42:00,
2013-07-08 09:47:00,82.8,74.4,30.18,SE,135,0.0,0.0,76,0.00,,SKC,0.00,VWS V14.01,2013-07-08 14:47:00,
2013-07-08 09:52:00,82.8,74.4,30.18,North,0,0.0,0.0,76,0.00,,SKC,0.00,VWS V14.01,2013-07-08 14:52:00,
2013-07-08 09:57:00,82.6,73.9,30.18,SSE,158,0.0,0.0,75,0.00,,SKC,0.00,VWS V14.01,2013-07-08 14:57:00,
2013-07-08 10:02:00,82.8,74.4,30.18,SSE,158,0.0,0.0,76,0.00,,SKC,0.00,VWS V14.01,2013-07-08 15:02:00,
2013-07-08 10:07:00,83.1,74.4,30.21,East,90,0.0,0.0,75,0.00,,SKC,0.00,VWS V14.01,2013-07-08 15:07:00,
2013-07-08 10:12:00,83.7,74.9,30.21,South,180,0.0,0.0,75,0.00,,SKC,0.00,VWS V14.01,2013-07-08 15:12:00,
2013-07-08 10:17:00,84.2,75.4,30.21,WNW,292,0.0,0.0,75,0.00,,SKC,0.00,VWS V14.01,2013-07-08 15:17:00,
2013-07-08 10:22:00,84.6,75.4,30.21,SSW,202,0.0,0.0,74,0.00,,SKC,0.00,VWS V14.01,2013-07-08 15:22:00,
2013-07-08 10:27:00,85.3,75.7,30.21,West,270,0.0,0.0,73,0.00,,SKC,0.00,VWS V14.01,2013-07-08 15:27:00,
2013-07-08 10:32:00,85.8,76.6,30.21,SW,225,0.0,0.0,74,0.00,,SKC,0.00,VWS V14.01,2013-07-08 15:32:00,
2013-07-08 10:37:00,86.4,75.8,30.21,SSE,158,0.0,0.0,71,0.00,,SKC,0.00,VWS V14.01,2013-07-08 15:37:00,
2013-07-08 10:42:00,87.1,77.0,30.21,East,90,0.0,0.0,72,0.00,,SKC,0.00,VWS V14.01,2013-07-08 15:42:00,
2013-07-08 10:47:00,87.1,75.7,30.21,SE,135,0.0,0.0,69,0.00,,SKC,0.00,VWS V14.01,2013-07-08 15:47:00,
2013-07-08 10:52:00,87.4,76.0,30.21,SSE,158,0.0,0.0,69,0.00,,SKC,0.00,VWS V14.01,2013-07-08 15:52:00,
2013-07-08 10:57:00,88.0,76.1,30.21,WSW,248,0.0,0.0,68,0.00,,SKC,0.00,VWS V14.01,2013-07-08 15:57:00,
2013-07-08 11:02:00,88.9,76.5,30.21,SSE,158,0.0,0.0,67,0.00,,SKC,0.00,VWS V14.01,2013-07-08 16:02:00,
2013-07-08 11:07:00,90.1,77.7,30.21,SE,135,0.0,0.0,67,0.00,,SKC,0.00,VWS V14.01,2013-07-08 16:07:00,
2013-07-08 11:12:00,90.7,76.8,30.21,SSE,158,0.0,0.0,64,0.00,,SKC,0.00,VWS V14.01,2013-07-08 16:12:00,
2013-07-08 11:17:00,90.7,76.4,30.21,SE,135,0.0,0.0,63,0.00,,SKC,0.00,VWS V14.01,2013-07-08 16:17:00,
2013-07-08 11:22:00,90.9,76.1,30.21,South,180,0.0,0.0,62,0.00,,SKC,0.00,VWS V14.01,2013-07-08 16:22:00,
2013-07-08 11:27:00,91.2,76.4,30.21,South,180,0.0,0.0,62,0.00,,SKC,0.00,VWS V14.01,2013-07-08 16:27:00,
2013-07-08 11:32:00,91.9,76.6,30.21,SE,135,0.0,0.0,61,0.00,,SKC,0.00,VWS V14.01,2013-07-08 16:32:00,
2013-07-08 11:37:00,93.6,77.1,30.21,SSE,158,0.0,0.0,59,0.00,,SKC,0.00,VWS V14.01,2013-07-08 16:37:00,
2013-07-08 11:42:00,93.4,75.9,30.21,SE,135,0.0,0.0,57,0.00,,SKC,0.00,VWS V14.01,2013-07-08 16:42:00,
2013-07-08 11:47:00,93.6,75.5,30.21,WSW,248,0.0,0.0,56,0.00,,SKC,0.00,VWS V14.01,2013-07-08 16:47:00,
2013-07-08 11:52:00,95.0,76.8,30.21,NE,45,0.0,0.0,56,0.00,,SKC,0.00,VWS V14.01,2013-07-08 16:52:00,
2013-07-08 11:57:00,94.1,75.5,30.21,SSW,202,0.0,0.0,55,0.00,,SKC,0.00,VWS V14.01,2013-07-08 16:57:00,
2013-07-08 12:02:00,93.9,75.8,30.21,SE,135,0.0,0.0,56,0.00,,SKC,0.00,VWS V14.01,2013-07-08 17:02:00,
2013-07-08 12:08:00,94.5,75.8,30.21,ESE,112,0.0,0.0,55,0.00,,SKC,0.00,VWS V14.01,2013-07-08 17:08:00,
2013-07-08 12:13:00,95.0,76.3,30.21,SE,135,0.0,0.0,55,0.00,,SKC,0.00,VWS V14.01,2013-07-08 17:13:00,
2013-07-08 12:18:00,96.1,77.3,30.21,SW,225,0.0,0.0,55,0.00,,SKC,0.00,VWS V14.01,2013-07-08 17:18:00,
2013-07-08 12:23:00,94.8,76.7,30.21,SE,135,0.0,0.0,56,0.00,,SKC,0.00,VWS V14.01,2013-07-08 17:23:00,
2013-07-08 12:28:00,94.3,76.7,30.21,SW,225,0.0,0.0,57,0.00,,SKC,0.00,VWS V14.01,2013-07-08 17:28:00,
2013-07-08 12:33:00,94.3,75.1,30.21,South,180,0.0,0.0,54,0.00,,SKC,0.00,VWS V14.01,2013-07-08 17:33:00,
2013-07-08 12:38:00,94.1,75.5,30.21,SW,225,0.0,0.0,55,0.00,,SKC,0.00,VWS V14.01,2013-07-08 17:38:00,
2013-07-08 12:43:00,91.9,74.0,30.21,SSE,158,0.0,0.0,56,0.00,,SKC,0.00,VWS V14.01,2013-07-08 17:43:00,
2013-07-08 12:48:00,91.8,74.4,30.21,SSE,158,2.9,11.6,57,0.00,,SKC,0.00,VWS V14.01,2013-07-08 17:48:00,
2013-07-08 12:54:00,90.9,74.6,30.21,SW,225,0.0,0.0,59,0.00,,SKC,0.00,VWS V14.01,2013-07-08 17:54:00,
2013-07-08 12:59:00,90.1,74.4,30.21,SSE,158,0.0,0.0,60,0.00,,SKC,0.00,VWS V14.01,2013-07-08 17:59:00,
2013-07-08 13:04:00,90.0,74.7,30.18,South,180,0.0,0.0,61,0.00,,SKC,0.00,VWS V14.01,2013-07-08 18:04:00,
2013-07-08 13:09:00,89.6,74.4,30.18,ESE,112,0.0,0.0,61,0.00,,SKC,0.00,VWS V14.01,2013-07-08 18:09:00,
2013-07-08 13:14:00,90.0,75.2,30.18,SE,135,0.0,0.0,62,0.00,,SKC,0.00,VWS V14.01,2013-07-08 18:14:00,
2013-07-08 13:19:00,90.0,75.2,30.18,SE,135,0.0,0.0,62,0.00,,SKC,0.00,VWS V14.01,2013-07-08 18:19:00,
2013-07-08 13:20:00,90.3,75.5,30.18,SE,135,0.0,0.0,62,0.00,,SKC,0.00,VWS V14.01,2013-07-08 18:20:00,
2013-07-08 13:21:00,90.3,75.5,30.18,ESE,112,0.0,0.0,62,0.00,,SKC,0.00,VWS V14.01,2013-07-08 18:21:00,
2013-07-08 13:23:00,90.7,75.9,30.18,WSW,248,0.0,0.0,62,0.00,,SKC,0.00,VWS V14.01,2013-07-08 18:23:00,
2013-07-08 13:24:00,91.0,75.7,30.18,South,180,0.0,0.0,61,0.00,,SKC,0.00,VWS V14.01,2013-07-08 18:24:00,
2013-07-08 20:18:00,91.0,75.7,30.18,South,180,0.0,0.0,61,0.00,,SKC,0.00,VWS V14.01,2013-07-09 01:18:00,
2013-07-08 20:23:00,83.5,73.9,30.12,SSE,158,0.0,0.0,73,0.00,,SKC,0.00,VWS V14.01,2013-07-09 01:23:00,
2013-07-08 20:28:00,83.3,74.2,30.12,SSE,158,0.0,0.0,74,0.00,,SKC,0.00,VWS V14.01,2013-07-09 01:28:00,
2013-07-08 20:33:00,83.3,74.6,30.12,SSE,158,0.0,0.0,75,0.00,,SKC,0.00,VWS V14.01,2013-07-09 01:33:00,
2013-07-08 20:38:00,83.3,74.9,30.12,SSE,158,0.0,0.0,76,0.00,,SKC,0.00,VWS V14.01,2013-07-09 01:38:00,
2013-07-08 20:44:00,83.1,74.8,30.12,SSE,158,0.0,0.0,76,0.00,,SKC,0.00,VWS V14.01,2013-07-09 01:44:00,
2013-07-08 20:49:00,83.1,75.2,30.12,South,180,0.0,0.0,77,0.00,,SKC,0.00,VWS V14.01,2013-07-09 01:49:00,
2013-07-08 20:54:00,82.9,75.0,30.12,SSE,158,0.0,0.0,77,0.00,,SKC,0.00,VWS V14.01,2013-07-09 01:54:00,
2013-07-08 20:59:00,82.9,75.0,30.12,South,180,0.0,0.0,77,0.00,,SKC,0.00,VWS V14.01,2013-07-09 01:59:00,
2013-07-08 21:04:00,82.6,74.6,30.12,SSE,158,0.0,0.0,77,0.00,,SKC,0.00,VWS V14.01,2013-07-09 02:04:00,
2013-07-08 21:09:00,82.6,74.6,30.12,SE,135,0.0,0.0,77,0.00,,SKC,0.00,VWS V14.01,2013-07-09 02:09:00,
2013-07-08 21:14:00,82.6,75.0,30.12,ESE,112,0.0,0.0,78,0.00,,SKC,0.00,VWS V14.01,2013-07-09 02:14:00,
2013-07-08 21:20:00,82.6,75.0,30.12,SE,135,0.0,0.0,78,0.00,,SKC,0.00,VWS V14.01,2013-07-09 02:20:00,
2013-07-08 21:25:00,82.6,75.0,30.12,South,180,0.0,0.0,78,0.00,,SKC,0.00,VWS V14.01,2013-07-09 02:25:00,
2013-07-08 21:30:00,82.4,74.9,30.12,SSE,158,0.0,0.0,78,0.00,,SKC,0.00,VWS V14.01,2013-07-09 02:30:00,
2013-07-08 21:35:00,82.4,74.9,30.12,SSE,158,0.0,0.0,78,0.00,,SKC,0.00,VWS V14.01,2013-07-09 02:35:00,
2013-07-08 21:40:00,82.4,74.9,30.12,ESE,112,0.0,0.0,78,0.00,,SKC,0.00,VWS V14.01,2013-07-09 02:40:00,
2013-07-08 21:45:00,82.4,74.9,30.12,SSE,158,0.0,0.0,78,0.00,,SKC,0.00,VWS V14.01,2013-07-09 02:45:00,
2013-07-08 21:50:00,82.2,74.7,30.12,SSE,158,0.0,0.0,78,0.00,,SKC,0.00,VWS V14.01,2013-07-09 02:50:00,
2013-07-08 21:55:00,82.2,75.1,30.12,SE,135,0.0,0.0,79,0.00,,SKC,0.00,VWS V14.01,2013-07-09 02:55:00,
2013-07-08 22:01:00,82.0,74.9,30.12,SSE,158,0.0,0.0,79,0.00,,SKC,0.00,VWS V14.01,2013-07-09 03:01:00,
2013-07-08 22:06:00,81.9,74.7,30.15,SSE,158,0.0,0.0,79,0.00,,SKC,0.00,VWS V14.01,2013-07-09 03:06:00,
2013-07-08 22:11:00,81.9,74.7,30.15,SSE,158,0.0,0.0,79,0.00,,SKC,0.00,VWS V14.01,2013-07-09 03:11:00,
2013-07-08 22:16:00,81.9,74.7,30.15,SSE,158,0.0,0.0,79,0.00,,SKC,0.00,VWS V14.01,2013-07-09 03:16:00,
2013-07-08 22:21:00,81.7,74.5,30.15,SSE,158,0.0,0.0,79,0.00,,SKC,0.00,VWS V14.01,2013-07-09 03:21:00,
2013-07-08 22:26:00,81.5,74.7,30.15,SSE,158,0.0,0.0,80,0.00,,SKC,0.00,VWS V14.01,2013-07-09 03:26:00,
2013-07-08 22:31:00,81.5,75.1,30.15,SSE,158,0.0,0.0,81,0.00,,SKC,0.00,VWS V14.01,2013-07-09 03:31:00,
2013-07-08 22:36:00,81.3,74.9,30.15,SSE,158,0.0,0.0,81,0.00,,SKC,0.00,VWS V14.01,2013-07-09 03:36:00,
2013-07-08 22:41:00,81.1,74.8,30.15,SSE,158,0.0,0.0,81,0.00,,SKC,0.00,VWS V14.01,2013-07-09 03:41:00,
2013-07-08 22:46:00,81.0,74.9,30.15,SSE,158,0.0,0.0,82,0.00,,SKC,0.00,VWS V14.01,2013-07-09 03:46:00,
2013-07-08 22:51:00,80.8,74.8,30.15,SSE,158,0.0,0.0,82,0.00,,SKC,0.00,VWS V14.01,2013-07-09 03:51:00,
2013-07-08 22:56:00,80.6,74.6,30.15,SE,135,0.0,0.0,82,0.00,,SKC,0.00,VWS V14.01,2013-07-09 03:56:00,
2013-07-08 23:01:00,80.6,75.0,30.15,SSE,158,0.0,0.0,83,0.00,,SKC,0.00,VWS V14.01,2013-07-09 04:01:00,
2013-07-08 23:06:00,80.4,74.8,30.15,SSE,158,0.0,0.0,83,0.00,,SKC,0.00,VWS V14.01,2013-07-09 04:06:00,
2013-07-08 23:11:00,80.6,75.0,30.15,SE,135,0.0,0.0,83,0.00,,SKC,0.00,VWS V14.01,2013-07-09 04:11:00,
2013-07-08 23:16:00,80.4,74.8,30.15,SSE,158,0.0,0.0,83,0.00,,SKC,0.00,VWS V14.01,2013-07-09 04:16:00,
2013-07-08 23:21:00,80.4,75.2,30.18,SSE,158,0.0,0.0,84,0.00,,SKC,0.00,VWS V14.01,2013-07-09 04:21:00,
2013-07-08 23:26:00,80.4,75.2,30.18,SE,135,0.0,0.0,84,0.00,,SKC,0.00,VWS V14.01,2013-07-09 04:26:00,
2013-07-08 23:31:00,80.4,75.2,30.18,SSE,158,0.0,0.0,84,0.00,,SKC,0.00,VWS V14.01,2013-07-09 04:31:00,
2013-07-08 23:36:00,80.4,75.2,30.18,SSE,158,0.0,0.0,84,0.00,,SKC,0.00,VWS V14.01,2013-07-09 04:36:00,
2013-07-08 23:41:00,80.2,75.0,30.18,SSE,158,0.0,0.0,84,0.00,,SKC,0.00,VWS V14.01,2013-07-09 04:41:00,
2013-07-08 23:46:00,80.2,74.6,30.18,SE,135,0.0,0.0,83,0.00,,SKC,0.00,VWS V14.01,2013-07-09 04:46:00,
2013-07-08 23:51:00,80.2,74.6,30.18,SSE,158,0.0,0.0,83,0.00,,SKC,0.00,VWS V14.01,2013-07-09 04:51:00,
2013-07-08 23:57:00,80.2,74.6,30.18,SE,135,0.0,0.0,83,0.00,,SKC,0.00,VWS V14.01,2013-07-09 04:57:00,